Location: Ciula Mare
(45.6000°N, 22.8167°E)
Time: 11:12:04
(UTC+00:00)

Spot 1 - Pass Details

Date: 03 February 2023
Orbit: 574 x 773 km, 98.8° (Epoch: 20 March)

Event Time Altitude Azimuth Distance (km) Brightness Sun altitude
Exits shadow 17:14:19 35° 71° (ENE) 945 4.5 -17.2°
Maximum altitude 17:15:06 39° 99° (E) 879 4.3 -17.3°
Drops below altitude 10° 17:18:53 10° 169° (S) 1,881 6.5 -18.0°
Sets 17:21:08 0° 177° (S) 2,783 7.4 -18.3°
